Flag for Canada Weather past 2 weeks in Hay River, Northwest Territories, Canada

Now
57 °F

Broken clouds.


Feels Like: 57 °F
Forecast: 56 / 66 °F
Wind: 2 mph from North

Location: Hay River

Current Time: Jul 31, 2015 at 11:53:26 PM

Latest Report: Jul 31, 2015 at 11:00 PM


Visibility: 15 mi

Pressure: 29.96 "Hg

Humidity: 94%

Dew point: 55 °F

Location of Hay RiverLocation

Historic Weather in Hay River — Graph

°F

Hay River temperature yesterday

Maximum temperature yesterday: 70 °F (at 5:00 PM)
Minimum temperature yesterday: 54 °F (at 7:00 AM)
Average temperature yesterday: 61 °F

Past Weeks' High & Low Weather Summary

 TemperatureHumidityPressure
High75 °F (Jul 29, 4:00 PM)100% (Jul 21, 5:00 AM)30.01 "Hg (Jul 21, 5:00 AM)
Low45 °F (Jul 23, 3:00 AM)39% (Jul 29, 4:00 PM)29.55 "Hg (Jul 18, 2:00 PM)
Average61 °F75%29.79 "Hg
* Reported Jul 16 11:00 PM — Jul 31 11:00 PM, Hay River, Weather by CustomWeather, © 2015

Note: Actual official high and low records may vary slightly from our data, if they occured in-between our weather recording intervals... More about our weather records

Advertising

Hay River weather history for previous 24 hours

 ConditionsComfort  
Time TempWeatherWind HumidityBarometerVisibility
11:00 PM
Fri, Jul 31
57 °FBroken clouds.2 mph94%29.96 "Hg15 mi
10:00 PM61 °FBroken clouds.3 mph88%29.96 "Hg15 mi
9:00 PM63 °FBroken clouds.2 mph88%29.96 "Hg15 mi
8:00 PM63 °FBroken clouds.6 mph88%29.97 "Hg15 mi
7:00 PM66 °FBroken clouds.6 mph73%29.98 "Hg15 mi
6:00 PM68 °FBroken clouds.9 mph64%29.98 "Hg15 mi
5:00 PM64 °FPartly sunny.9 mph73%29.98 "Hg15 mi
4:00 PM68 °FBroken clouds.8 mph73%29.97 "Hg15 mi
3:00 PM72 °FBroken clouds.9 mph53%29.96 "Hg15 mi
2:00 PM72 °FBroken clouds.8 mph50%29.97 "Hg15 mi
1:00 PM72 °FScattered clouds.7 mph50%29.98 "Hg15 mi
12:00 PM70 °FScattered clouds.2 mph53%29.99 "Hg15 mi
11:00 AM70 °FPassing clouds.3 mph60%30.00 "Hg15 mi
10:00 AM68 °FPassing clouds.5 mph60%30.00 "Hg15 mi
9:00 AM64 °FScattered clouds.No wind68%30.00 "Hg15 mi
8:00 AM59 °FPassing clouds.3 mph77%30.00 "Hg15 mi
7:00 AM54 °FPassing clouds.No wind94%30.01 "Hg15 mi
6:00 AM52 °FPassing clouds.No wind88%30.00 "Hg15 mi
5:00 AM50 °FPassing clouds.No wind94%29.99 "Hg15 mi
4:00 AM52 °FPassing clouds.2 mph88%30.00 "Hg15 mi
3:00 AM52 °FPassing clouds.2 mph94%29.99 "Hg15 mi
2:00 AM54 °FPassing clouds.2 mph88%29.99 "Hg15 mi
1:00 AM55 °FPassing clouds.No wind82%29.99 "Hg15 mi
12:00 AM57 °FPassing clouds.No wind82%29.99 "Hg15 mi
11:00 PM
Thu, Jul 30
57 °FPassing clouds.2 mph88%29.99 "Hg15 mi
Weather by CustomWeather, © 2015

See weather overviewHow to use our weather pages